Content
SEND FEEDBACK

Daily
Averages
Monthly
Summary
United States of America

EUREKA SPRINGS, ARKANSAS


Home > North America > United States > Arkansas
Elevation: 1417 feet     Latitude: 36 25N     Longitude: 093 46W

WEATHER
 
SELECT A DAY
Number of Records: 359,333;   Date Range: 1/1/95 - 12/18/14
 
SHARE

PRINT THIS DATA

[ ← Previous Day ]
WEATHER ALMANAC - FEBRUARY 1, 2013
[ Next Day → ]
[ °C ]   °F
Weather ElementAverageHighLow
Temperature27.6 °F44.1 °F (3:57 pm)12.9 °F (3:57 am)
Dewpoint11.1 °F18 °F (11:57 pm)7 °F (3:57 am)
Humidity53.6 %77 % (2:57 am)30 % (3:57 pm)
Barometer30.36 in30.48 in (5:57 am)30.21 in (7:57 pm)
Wind Speed6.9 mph12.7 mph (3:57 pm)
Weather ElementAverage
Visibility10 mi
Wind DirectionESE (110.9 °)

Weather ElementTotal
Precipitation---
Heating Degree Days36.5 (Base 65)
Averaged from 22 records on February 1, 2013
WEATHER CONDITIONS BREAKOUT
WIND DIRECTION BREAKOUT
WEATHER BY HOUR - FEBRUARY 1, 2013
[ °C ]   °F
Local TimeTemperatureDewpointHumidityBarometerVisibilityWind DirectionWind SpeedGust SpeedPrecipitationEventsConditions
1:57 AM15.1 °F8.1 °F74 %30.44 in10.0 miNorth (10°)9.2 mphClear
2:57 AM14.0 °F8.1 °F77 %30.43 in10.0 miNNE (30°)11.5 mphClear
3:57 AM12.9 °F7.0 °F77 %30.45 in10.0 miNNE (20°)4.6 mphClear
4:57 AM12.9 °F7.0 °F77 %30.46 in10.0 miENE (60°)3.5 mphClear
5:57 AM12.9 °F7.0 °F77 %30.48 in10.0 miCalmClear
6:57 AM12.9 °F7.0 °F77 %30.48 in10.0 miEast (100°)4.6 mphClear
7:57 AM15.1 °F9.0 °F77 %30.48 in10.0 miSE (130°)8.1 mphClear
9:57 AM23.0 °F10.0 °F58 %30.48 in10.0 miSE (130°)5.8 mphClear
10:57 AM27.0 °F9.0 °F47 %30.47 in10.0 miSSE (150°)5.8 mphClear
11:57 AM30.9 °F9.0 °F40 %30.44 in10.0 miSouth (170°)5.8 mphClear
12:57 PM35.1 °F7.0 °F31 %30.39 in10.0 miSSE (160°)8.1 mphClear
1:57 PM37.0 °F9.0 °F31 %30.35 in10.0 miESE (110°)8.1 mphClear
2:57 PM42.1 °F12.9 °F31 %30.29 in10.0 miSE (130°)11.5 mphClear
3:57 PM44.1 °F14.0 °F30 %30.27 in10.0 miSE (140°)12.7 mphClear
4:57 PM44.1 °F15.1 °F31 %30.24 in10.0 miSSE (160°)10.4 mphClear
5:57 PM39.0 °F15.1 °F38 %30.23 in10.0 miSouth (170°)11.5 mphClear
6:57 PM37.0 °F12.9 °F37 %30.22 in10.0 miSSE (150°)12.7 mphClear
7:57 PM34.0 °F12.9 °F42 %30.21 in10.0 miSE (140°)9.2 mphClear
8:57 PM32.0 °F12.9 °F45 %30.23 in10.0 miCalmClear
9:57 PM30.0 °F16.0 °F56 %30.26 in10.0 miNW (320°)3.5 mphClear
10:57 PM28.0 °F17.1 °F63 %30.26 in10.0 miCalmClear
11:57 PM28.9 °F18.0 °F64 %30.25 in10.0 miSSE (160°)4.6 mphClear
Hourly data recorded from KROG, located miles away from Eureka Springs, Arkansas







STORIES FROM OUR PARTNERS